Home   Weather   Sacramento   Past weeks

Flag for USA Past Weather in Sacramento, California, USA — Yesterday and Last 2 Weeks

Now
46 °F

Overcast.


Feels Like: 41 °F
Forecast: 45 / 52 °F
Wind: 9 mph from South

Location: Sacramento Executive Airport

Current Time: Jan 21, 2017 at 5:32:09 am

Latest Report: Jan 21, 2017 at 4:53 am


Visibility: 10 mi

Pressure: 29.62 "Hg

Humidity: 93%

Dew Point: 44 °F

Location of SacramentoLocation

Past Weather in Sacramento — Graph

°F

Sacramento Temperature Yesterday

Maximum temperature yesterday: 52 °F (at 2:53 pm)
Minimum temperature yesterday: 46 °F (at 11:53 pm)
Average temperature yesterday: 48 °F

High & Low Weather Summary for the Past Weeks

 TemperatureHumidityPressure
High63 °F (Jan 8, 8:53 am)100% (Jan 7, 4:00 am)30.27 "Hg (Jan 7, 4:00 am)
Low30 °F (Jan 6, 4:53 am)58% (Jan 13, 2:53 pm)29.29 "Hg (Jan 20, 2:53 pm)
Average47 °F93%29.97 "Hg
* Reported Jan 6 3:53 am — Jan 21 3:53 am, Sacramento, Weather by CustomWeather, © 2017

Note: Actual official high and low records may vary slightly from our data, if they occured in-between our weather recording intervals... More about our weather records

Advertising

Sacramento Weather History for the Previous 24 Hours

Scroll right to see more
 ConditionsComfort  
Time TempWeatherWind HumidityBarometerVisibility
3:53 am
Sat, Jan 21
47 °FMostly cloudy.9 mph90%29.59 "Hg10 mi
2:53 am45 °FPartly cloudy.8 mph93%29.56 "Hg10 mi
1:53 am45 °FPartly cloudy.8 mph93%29.54 "Hg10 mi
12:53 am47 °FPassing clouds.7 mph86%29.50 "Hg10 mi
11:53 pm
Fri, Jan 20
46 °FClear.5 mph89%29.49 "Hg10 mi
10:53 pm47 °FClear.8 mph86%29.46 "Hg10 mi
9:53 pm47 °FMostly cloudy.8 mph90%29.44 "Hg10 mi
8:53 pm47 °FMostly cloudy.10 mph90%29.41 "Hg10 mi
7:53 pm47 °FLight rain. Overcast.9 mph90%29.39 "Hg10 mi
6:53 pm48 °FPassing clouds.9 mph83%29.36 "Hg10 mi
5:53 pm49 °FClear.10 mph80%29.34 "Hg10 mi
4:53 pm51 °FPartly sunny.8 mph74%29.31 "Hg10 mi
3:53 pm51 °FSunny.9 mph74%29.31 "Hg10 mi
2:53 pm52 °FScattered clouds.6 mph80%29.29 "Hg10 mi
1:53 pm51 °FPartly sunny.8 mph83%29.30 "Hg10 mi
12:53 pm51 °FPartly sunny.12 mph86%29.31 "Hg10 mi
11:53 am50 °FLight rain. Mostly cloudy.10 mph86%29.34 "Hg10 mi
10:53 am49 °FMostly cloudy.14 mph86%29.36 "Hg10 mi
9:53 am47 °FBroken clouds.18 mph90%29.36 "Hg10 mi
9:15 am47 °FLight rain. Cloudy.22 mph93%29.37 "Hg10 mi
8:53 am47 °FLight rain. Mostly cloudy.20 mph93%29.36 "Hg9 mi
7:57 am47 °FLight rain. Mostly cloudy.24 mph93%29.34 "Hg10 mi
6:53 am47 °FLight rain. Fog.18 mph97%29.35 "Hg5 mi
6:29 am48 °FMostly cloudy.18 mph93%29.36 "Hg10 mi
5:53 am48 °FLight rain. Mostly cloudy.21 mph93%29.37 "Hg7 mi
Weather by CustomWeather, © 2017

See weather overviewHow to use our weather pages